Time,TemperatureF,DewpointF,PressureIn,WindDirection,WindDirectionDegrees,WindSpeedMPH,WindSpeedGustMPH,Humidity,HourlyPrecipIn,Conditions,Clouds,dailyrainin,SoftwareType,DateUTC
2013-04-04 00:02:00,49.0,11.0,-100.00,West,272,12.0,17.0,21,0.00,,,-99.99,,2013-04-04 00:02:00,
2013-04-04 00:11:00,48.0,13.0,-100.00,WSW,258,14.0,18.0,24,0.00,,,-99.99,,2013-04-04 00:11:00,
2013-04-04 00:21:00,49.0,12.0,-100.00,West,275,15.0,17.0,23,0.00,,,-99.99,,2013-04-04 00:21:00,
2013-04-04 00:32:00,49.0,13.0,-100.00,West,272,12.0,14.0,23,0.00,,,-99.99,,2013-04-04 00:32:00,
2013-04-04 00:42:00,47.0,20.0,-100.00,North,11,14.0,16.0,33,0.00,,,-99.99,,2013-04-04 00:42:00,
2013-04-04 00:52:00,47.0,21.0,-100.00,North,0,9.0,11.0,35,0.00,,,-99.99,,2013-04-04 00:52:00,
2013-04-04 01:02:00,46.0,22.0,-100.00,North,359,10.0,12.0,38,0.00,,,-99.99,,2013-04-04 01:02:00,
2013-04-04 01:11:00,45.0,22.0,-100.00,NNW,346,11.0,15.0,40,0.00,,,-99.99,,2013-04-04 01:11:00,
2013-04-04 01:21:00,45.0,22.0,-100.00,NNW,346,9.0,11.0,40,0.00,,,-99.99,,2013-04-04 01:21:00,
2013-04-04 01:32:00,44.0,22.0,-100.00,North,1,9.0,11.0,40,0.00,,,-99.99,,2013-04-04 01:32:00,
2013-04-04 01:42:00,43.0,22.0,-100.00,North,359,7.0,9.0,43,0.00,,,-99.99,,2013-04-04 01:42:00,
2013-04-04 01:52:00,42.0,22.0,-100.00,North,360,7.0,8.0,45,0.00,,,-99.99,,2013-04-04 01:52:00,
2013-04-04 02:02:00,41.0,23.0,-100.00,NNW,337,6.0,6.0,48,0.00,,,-99.99,,2013-04-04 02:02:00,
2013-04-04 02:11:00,41.0,22.0,-100.00,WNW,301,4.0,6.0,47,0.00,,,-99.99,,2013-04-04 02:11:00,
2013-04-04 02:22:00,41.0,21.0,-100.00,WNW,287,6.0,7.0,44,0.00,,,-99.99,,2013-04-04 02:22:00,
2013-04-04 02:32:00,40.0,22.0,-100.00,West,267,2.0,4.0,48,0.00,,,-99.99,,2013-04-04 02:32:00,
2013-04-04 02:41:00,40.0,22.0,-100.00,West,267,2.0,4.0,48,0.00,,,-99.99,,2013-04-04 02:41:00,
2013-04-04 02:52:00,40.0,22.0,-100.00,West,267,2.0,4.0,48,0.00,,,-99.99,,2013-04-04 02:52:00,
2013-04-04 03:02:00,38.0,23.0,-100.00,West,277,1.0,4.0,52,0.00,,,-99.99,,2013-04-04 03:02:00,
2013-04-04 03:11:00,39.0,23.0,-100.00,NE,56,0.0,2.0,53,0.00,,,-99.99,,2013-04-04 03:11:00,
2013-04-04 03:21:00,36.0,21.0,-100.00,SSE,167,0.0,0.0,54,0.00,,,-99.99,,2013-04-04 03:21:00,
2013-04-04 03:33:00,34.0,22.0,-100.00,North,1,2.0,4.0,61,0.00,,,-99.99,,2013-04-04 03:33:00,
2013-04-04 03:43:00,32.0,24.0,-100.00,NNE,27,4.0,6.0,71,0.00,,,-99.99,,2013-04-04 03:43:00,
2013-04-04 03:53:00,34.0,23.0,-100.00,NNW,340,4.0,6.0,65,0.00,,,-99.99,,2013-04-04 03:53:00,
2013-04-04 04:02:00,35.0,24.0,-100.00,WNW,296,6.0,6.0,62,0.00,,,-99.99,,2013-04-04 04:02:00,
2013-04-04 04:12:00,34.0,24.0,-100.00,NW,304,4.0,6.0,66,0.00,,,-99.99,,2013-04-04 04:12:00,
2013-04-04 04:22:00,35.0,24.0,-100.00,NW,316,2.0,4.0,64,0.00,,,-99.99,,2013-04-04 04:22:00,
2013-04-04 04:33:00,35.0,24.0,-100.00,WSW,258,1.0,4.0,66,0.00,,,-99.99,,2013-04-04 04:33:00,
2013-04-04 04:42:00,35.0,24.0,-100.00,WNW,296,2.0,3.0,64,0.00,,,-99.99,,2013-04-04 04:42:00,
2013-04-04 04:52:00,33.0,24.0,-100.00,NNW,328,3.0,4.0,69,0.00,,,-99.99,,2013-04-04 04:52:00,
2013-04-04 05:02:00,35.0,24.0,-100.00,NNW,329,4.0,4.0,63,0.00,,,-99.99,,2013-04-04 05:02:00,
2013-04-04 05:12:00,34.0,24.0,-100.00,North,353,2.0,3.0,67,0.00,,,-99.99,,2013-04-04 05:12:00,
2013-04-04 05:22:00,35.0,24.0,-100.00,NW,326,3.0,4.0,66,0.00,,,-99.99,,2013-04-04 05:22:00,
2013-04-04 05:32:00,32.0,24.0,-100.00,NW,325,1.0,2.0,73,0.00,,,-99.99,,2013-04-04 05:32:00,
2013-04-04 05:42:00,33.0,24.0,-100.00,NNW,332,1.0,4.0,69,0.00,,,-99.99,,2013-04-04 05:42:00,
2013-04-04 05:52:00,33.0,24.0,-100.00,NNW,337,2.0,3.0,71,0.00,,,-99.99,,2013-04-04 05:52:00,
2013-04-04 06:02:00,33.0,24.0,-100.00,NW,320,4.0,5.0,71,0.00,,,-99.99,,2013-04-04 06:02:00,
2013-04-04 06:11:00,32.0,24.0,-100.00,NW,309,3.0,4.0,72,0.00,,,-99.99,,2013-04-04 06:11:00,
2013-04-04 06:21:00,33.0,24.0,-100.00,NW,323,2.0,2.0,71,0.00,,,-99.99,,2013-04-04 06:21:00,
2013-04-04 06:32:00,31.0,24.0,-100.00,NNW,333,3.0,4.0,76,0.00,,,-99.99,,2013-04-04 06:32:00,
2013-04-04 06:42:00,29.0,24.0,-100.00,NW,312,4.0,4.0,80,0.00,,,-99.99,,2013-04-04 06:42:00,
2013-04-04 06:52:00,30.0,24.0,-100.00,South,172,0.0,1.0,79,0.00,,,-99.99,,2013-04-04 06:52:00,
2013-04-04 07:01:00,31.0,24.0,-100.00,NW,315,2.0,2.0,76,0.00,,,-99.99,,2013-04-04 07:01:00,
2013-04-04 07:21:00,30.0,24.0,-100.00,North,360,1.0,2.0,79,0.00,,,-99.99,,2013-04-04 07:21:00,
2013-04-04 07:32:00,30.0,24.0,-100.00,WNW,294,2.0,7.0,78,0.00,,,-99.99,,2013-04-04 07:32:00,
2013-04-04 07:42:00,35.0,24.0,-100.00,WNW,301,1.0,1.0,63,0.00,,,-99.99,,2013-04-04 07:42:00,
2013-04-04 07:51:00,30.0,24.0,-100.00,WNW,292,4.0,6.0,78,0.00,,,-99.99,,2013-04-04 07:51:00,
2013-04-04 08:02:00,32.0,24.0,-100.00,WNW,289,4.0,5.0,72,0.00,,,-99.99,,2013-04-04 08:02:00,
2013-04-04 08:11:00,30.0,24.0,-100.00,West,281,6.0,7.0,76,0.00,,,-99.99,,2013-04-04 08:11:00,
2013-04-04 08:22:00,33.0,24.0,-100.00,West,263,7.0,8.0,69,0.00,,,-99.99,,2013-04-04 08:22:00,
2013-04-04 08:32:00,34.0,22.0,-100.00,West,277,8.0,10.0,62,0.00,,,-99.99,,2013-04-04 08:32:00,
2013-04-04 08:42:00,34.0,22.0,-100.00,West,265,9.0,10.0,62,0.00,,,-99.99,,2013-04-04 08:42:00,
2013-04-04 08:52:00,34.0,22.0,-100.00,West,265,10.0,11.0,60,0.00,,,-99.99,,2013-04-04 08:52:00,
2013-04-04 09:02:00,36.0,21.0,-100.00,West,264,8.0,10.0,56,0.00,,,-99.99,,2013-04-04 09:02:00,
2013-04-04 09:11:00,35.0,21.0,-100.00,West,265,9.0,11.0,57,0.00,,,-99.99,,2013-04-04 09:11:00,
2013-04-04 09:22:00,36.0,22.0,-100.00,WSW,256,7.0,8.0,56,0.00,,,-99.99,,2013-04-04 09:22:00,
2013-04-04 09:32:00,35.0,21.0,-100.00,SW,224,0.0,1.0,56,0.00,,,-99.99,,2013-04-04 09:32:00,
2013-04-04 09:42:00,36.0,21.0,-100.00,WSW,257,4.0,7.0,55,0.00,,,-99.99,,2013-04-04 09:42:00,
2013-04-04 09:52:00,36.0,22.0,-100.00,WNW,289,2.0,4.0,56,0.00,,,-99.99,,2013-04-04 09:52:00,
2013-04-04 10:03:00,37.0,22.0,-100.00,NW,319,3.0,4.0,55,0.00,,,-99.99,,2013-04-04 10:03:00,
2013-04-04 10:12:00,38.0,22.0,-100.00,WNW,282,5.0,6.0,54,0.00,,,-99.99,,2013-04-04 10:12:00,
2013-04-04 10:23:00,38.0,22.0,-100.00,WNW,287,7.0,10.0,54,0.00,,,-99.99,,2013-04-04 10:23:00,
2013-04-04 10:32:00,36.0,22.0,-100.00,WSW,257,5.0,7.0,58,0.00,,,-99.99,,2013-04-04 10:32:00,
2013-04-04 10:41:00,35.0,23.0,-100.00,SW,219,0.0,1.0,59,0.00,,,-99.99,,2013-04-04 10:41:00,
2013-04-04 10:53:00,35.0,23.0,-100.00,East,93,3.0,5.0,63,0.00,,,-99.99,,2013-04-04 10:53:00,
2013-04-04 11:02:00,34.0,23.0,-100.00,SW,226,0.0,0.0,64,0.00,,,-99.99,,2013-04-04 11:02:00,
2013-04-04 11:12:00,34.0,23.0,-100.00,WNW,285,1.0,2.0,64,0.00,,,-99.99,,2013-04-04 11:12:00,
2013-04-04 11:21:00,30.0,22.0,-100.00,SSE,160,6.0,7.0,74,0.00,,,-99.99,,2013-04-04 11:21:00,
2013-04-04 11:32:00,32.0,24.0,-100.00,SW,230,11.0,14.0,72,0.00,,,-99.99,,2013-04-04 11:32:00,
2013-04-04 11:42:00,30.0,24.0,-100.00,WSW,241,11.0,12.0,76,0.00,,,-99.99,,2013-04-04 11:42:00,
2013-04-04 11:52:00,29.0,23.0,-100.00,SW,232,9.0,11.0,78,0.00,,,-99.99,,2013-04-04 11:52:00,
2013-04-04 12:02:00,29.0,23.0,-100.00,SW,222,7.0,9.0,77,0.00,,,-99.99,,2013-04-04 12:02:00,
2013-04-04 12:11:00,29.0,23.0,-100.00,SW,224,6.0,7.0,77,0.00,,,-99.99,,2013-04-04 12:11:00,
2013-04-04 12:21:00,30.0,23.0,-100.00,SW,215,7.0,9.0,74,0.00,,,-99.99,,2013-04-04 12:21:00,
2013-04-04 12:32:00,31.0,24.0,-100.00,SSW,213,9.0,10.0,74,0.00,,,-99.99,,2013-04-04 12:32:00,
2013-04-04 12:42:00,32.0,24.0,-100.00,SW,215,11.0,13.0,72,0.00,,,-99.99,,2013-04-04 12:42:00,
2013-04-04 12:52:00,32.0,24.0,-100.00,SW,224,12.0,16.0,72,0.00,,,-99.99,,2013-04-04 12:52:00,
2013-04-04 13:02:00,33.0,24.0,-100.00,SW,233,16.0,20.0,70,0.00,,,-99.99,,2013-04-04 13:02:00,
2013-04-04 13:11:00,34.0,25.0,-100.00,SW,233,13.0,17.0,69,0.00,,,-99.99,,2013-04-04 13:11:00,
2013-04-04 13:21:00,33.0,25.0,-100.00,SW,234,12.0,14.0,70,0.00,,,-99.99,,2013-04-04 13:21:00,
2013-04-04 13:32:00,35.0,25.0,-100.00,WSW,247,16.0,18.0,66,0.00,,,-99.99,,2013-04-04 13:32:00,
2013-04-04 13:41:00,35.0,25.0,-100.00,WSW,250,11.0,14.0,66,0.00,,,-99.99,,2013-04-04 13:41:00,
2013-04-04 13:52:00,35.0,25.0,-100.00,WSW,251,11.0,13.0,64,0.00,,,-99.99,,2013-04-04 13:52:00,
2013-04-04 14:02:00,36.0,25.0,-100.00,WSW,240,11.0,14.0,65,0.00,,,-99.99,,2013-04-04 14:02:00,
2013-04-04 14:11:00,36.0,25.0,-100.00,SW,234,11.0,14.0,65,0.00,,,-99.99,,2013-04-04 14:11:00,
2013-04-04 14:21:00,36.0,25.0,-100.00,WSW,250,9.0,12.0,65,0.00,,,-99.99,,2013-04-04 14:21:00,
2013-04-04 14:32:00,37.0,26.0,-100.00,WSW,254,12.0,17.0,63,0.00,,,-99.99,,2013-04-04 14:32:00,
2013-04-04 14:42:00,38.0,26.0,-100.00,WSW,246,12.0,18.0,61,0.00,,,-99.99,,2013-04-04 14:42:00,
2013-04-04 15:02:00,40.0,27.0,-100.00,WSW,243,10.0,15.0,59,0.00,,,-99.99,,2013-04-04 15:02:00,
2013-04-04 15:11:00,39.0,27.0,-100.00,WSW,239,12.0,16.0,60,0.00,,,-99.99,,2013-04-04 15:11:00,
2013-04-04 15:22:00,40.0,26.0,-100.00,SW,233,17.0,21.0,57,0.00,,,-99.99,,2013-04-04 15:22:00,
2013-04-04 15:33:00,41.0,28.0,-100.00,SW,233,15.0,20.0,58,0.00,,,-99.99,,2013-04-04 15:33:00,
2013-04-04 15:42:00,42.0,28.0,-100.00,SW,230,16.0,24.0,58,0.00,,,-99.99,,2013-04-04 15:42:00,
2013-04-04 15:53:00,42.0,27.0,-100.00,WSW,251,19.0,24.0,55,0.00,,,-99.99,,2013-04-04 15:53:00,
2013-04-04 16:12:00,42.0,28.0,-100.00,SW,230,20.0,26.0,57,0.00,,,-99.99,,2013-04-04 16:12:00,
2013-04-04 16:22:00,41.0,28.0,-100.00,WSW,246,21.0,24.0,59,0.00,,,-99.99,,2013-04-04 16:22:00,
2013-04-04 16:32:00,42.0,28.0,-100.00,WSW,240,19.0,26.0,58,0.00,,,-99.99,,2013-04-04 16:32:00,
2013-04-04 16:42:00,43.0,29.0,-100.00,WSW,244,14.0,18.0,57,0.00,,,-99.99,,2013-04-04 16:42:00,
2013-04-04 16:52:00,42.0,29.0,-100.00,WSW,254,18.0,21.0,57,0.00,,,-99.99,,2013-04-04 16:52:00,
2013-04-04 17:02:00,44.0,29.0,-100.00,WSW,240,15.0,21.0,56,0.00,,,-99.99,,2013-04-04 17:02:00,
2013-04-04 17:11:00,44.0,29.0,-100.00,SW,233,19.0,21.0,56,0.00,,,-99.99,,2013-04-04 17:11:00,
2013-04-04 17:22:00,44.0,29.0,-100.00,SW,220,19.0,26.0,55,0.00,,,-99.99,,2013-04-04 17:22:00,
2013-04-04 17:32:00,44.0,29.0,-100.00,SW,226,19.0,24.0,55,0.00,,,-99.99,,2013-04-04 17:32:00,
2013-04-04 17:42:00,44.0,29.0,-100.00,SW,215,17.0,24.0,55,0.00,,,-99.99,,2013-04-04 17:42:00,
2013-04-04 17:52:00,44.0,29.0,-100.00,SW,226,21.0,27.0,55,0.00,,,-99.99,,2013-04-04 17:52:00,
2013-04-04 18:02:00,45.0,30.0,-100.00,WSW,248,20.0,26.0,54,0.00,,,-99.99,,2013-04-04 18:02:00,
2013-04-04 18:11:00,46.0,29.0,-100.00,SW,219,17.0,24.0,50,0.00,,,-99.99,,2013-04-04 18:11:00,
2013-04-04 18:22:00,45.0,28.0,-100.00,WSW,237,22.0,27.0,51,0.00,,,-99.99,,2013-04-04 18:22:00,
2013-04-04 18:32:00,46.0,29.0,-100.00,WSW,237,19.0,26.0,50,0.00,,,-99.99,,2013-04-04 18:32:00,
2013-04-04 18:42:00,47.0,26.0,-100.00,SW,233,22.0,33.0,44,0.00,,,-99.99,,2013-04-04 18:42:00,
2013-04-04 19:02:00,46.0,24.0,-100.00,WSW,243,30.0,35.0,42,0.00,,,-99.99,,2013-04-04 19:02:00,
2013-04-04 19:11:00,46.0,26.0,-100.00,WSW,248,26.0,29.0,45,0.00,,,-99.99,,2013-04-04 19:11:00,
2013-04-04 19:21:00,47.0,26.0,-100.00,WSW,256,19.0,25.0,44,0.00,,,-99.99,,2013-04-04 19:21:00,
2013-04-04 19:32:00,47.0,25.0,-100.00,WSW,250,18.0,21.0,42,0.00,,,-99.99,,2013-04-04 19:32:00,
2013-04-04 19:42:00,47.0,25.0,-100.00,WSW,253,19.0,22.0,42,0.00,,,-99.99,,2013-04-04 19:42:00,
2013-04-04 19:52:00,47.0,26.0,-100.00,West,263,11.0,14.0,43,0.00,,,-99.99,,2013-04-04 19:52:00,
2013-04-04 20:02:00,47.0,27.0,-100.00,WSW,244,12.0,16.0,45,0.00,,,-99.99,,2013-04-04 20:02:00,
2013-04-04 20:11:00,47.0,25.0,-100.00,WSW,244,17.0,21.0,42,0.00,,,-99.99,,2013-04-04 20:11:00,
2013-04-04 20:32:00,48.0,26.0,-100.00,WSW,253,17.0,21.0,41,0.00,,,-99.99,,2013-04-04 20:32:00,
2013-04-04 20:42:00,49.0,26.0,-100.00,SW,229,17.0,24.0,41,0.00,,,-99.99,,2013-04-04 20:42:00,
2013-04-04 20:52:00,49.0,24.0,-100.00,SW,232,19.0,24.0,37,0.00,,,-99.99,,2013-04-04 20:52:00,
2013-04-04 21:02:00,49.0,25.0,-100.00,SW,230,18.0,22.0,40,0.00,,,-99.99,,2013-04-04 21:02:00,
2013-04-04 21:11:00,48.0,26.0,-100.00,SW,234,20.0,26.0,42,0.00,,,-99.99,,2013-04-04 21:11:00,
2013-04-04 21:22:00,49.0,26.0,-100.00,SW,229,15.0,23.0,40,0.00,,,-99.99,,2013-04-04 21:22:00,
2013-04-04 21:32:00,49.0,24.0,-100.00,WSW,240,24.0,29.0,37,0.00,,,-99.99,,2013-04-04 21:32:00,
2013-04-04 21:42:00,49.0,24.0,-100.00,SW,230,20.0,23.0,36,0.00,,,-99.99,,2013-04-04 21:42:00,
2013-04-04 21:52:00,49.0,24.0,-100.00,SW,224,21.0,26.0,37,0.00,,,-99.99,,2013-04-04 21:52:00,
2013-04-04 22:03:00,49.0,24.0,-100.00,SW,236,17.0,21.0,37,0.00,,,-99.99,,2013-04-04 22:03:00,
2013-04-04 22:12:00,49.0,24.0,-100.00,SW,229,14.0,19.0,36,0.00,,,-99.99,,2013-04-04 22:12:00,
2013-04-04 22:22:00,50.0,22.0,-100.00,SSW,212,20.0,30.0,33,0.00,,,-99.99,,2013-04-04 22:22:00,
2013-04-04 22:32:00,51.0,23.0,-100.00,SSW,213,20.0,26.0,32,0.00,,,-99.99,,2013-04-04 22:32:00,
2013-04-04 22:42:00,52.0,23.0,-100.00,SSW,213,18.0,22.0,32,0.00,,,-99.99,,2013-04-04 22:42:00,
2013-04-04 22:52:00,52.0,23.0,-100.00,WSW,239,19.0,29.0,31,0.00,,,-99.99,,2013-04-04 22:52:00,
2013-04-04 23:02:00,52.0,23.0,-100.00,SW,232,16.0,22.0,32,0.00,,,-99.99,,2013-04-04 23:02:00,
2013-04-04 23:11:00,53.0,22.0,-100.00,SW,222,14.0,22.0,30,0.00,,,-99.99,,2013-04-04 23:11:00,
2013-04-04 23:21:00,51.0,22.0,-100.00,SW,226,19.0,23.0,31,0.00,,,-99.99,,2013-04-04 23:21:00,
2013-04-04 23:32:00,52.0,22.0,-100.00,SW,226,17.0,22.0,31,0.00,,,-99.99,,2013-04-04 23:32:00,
2013-04-04 23:42:00,52.0,22.0,-100.00,WSW,237,20.0,26.0,30,0.00,,,-99.99,,2013-04-04 23:42:00,
2013-04-04 23:52:00,51.0,23.0,-100.00,WSW,243,16.0,19.0,33,0.00,,,-99.99,,2013-04-04 23:52:00,